Location: Newark
(27.2452°N, 107.0032°W)
Time: 11:27:39
(UTC+00:00)

Hubble Space Telescope - Pass Details

Date: 25 December 2019
Orbit: 536 x 540 km, 28.5° (Epoch: 20 January)

Event Time Altitude Azimuth Distance (km) Brightness Sun altitude
Exits shadow 11:22:03 18° 115° (ESE) 1,339 3.4 -33.1°
Drops below altitude 10° 11:23:13 10° 112° (ESE) 1,781 4.2 -32.8°
Sets 11:25:29 0° 109° (ESE) 2,672 5.4 -32.3°
